Regional Weather Roundup
Issued by NWS

Home | Current Version | Previous Version | Text Only | Print | Product List | Glossary On
Versions: 1 2 3 4 5 6 7 8 9 10 11 12 13 14 15 16 17 18 19 20 21 22 23 24 25 26 27 28 29 30 31 32 33 34 35 36 37 38 39 40 41 42 43 44 45 46 47 48 49 50
000
ASCA44 KEWX 120420
RWRMX

LATIN AMERICA AND CARIBBEAN REGIONAL WEATHER ROUNDUP
NATIONAL WEATHER SERVICE AUSTIN/SAN ANTONIO TX
1100 PM CDT FRI JUL 11 2014

NOTE: "FAIR" INDICATED FEW OR NO CLOUDS BELOW 12,000 FEET WITH NO
SIGNIFICANT WEATHER AND/OR OBSTRUCTIONS TO VISIBILITY.

BAJA CALIFORNIA

CITY           SKY/WX    TMP DP  RH WIND       PRES   REMARKS
LA PAZ         CLEAR     84  68  58 S9        29.88
MEXICALI       PTCLDY    91  45  19 W14       29.80
S.J. DEL CABO  CLEAR     84  72  65 E2        29.88R
TIJUANA        MOCLDY    68  59  73 W9        30.02R

NORTHWESTERN MEXICO

CITY           SKY/WX    TMP DP  RH WIND       PRES   REMARKS
CULIACAN       MOCLDY    86  73  66 W6        29.84  HX  93
DURANGO        CLOUDY    64  59  82 E5        30.27R
HERMOSILLO     CLOUDY    93  70  46 S8        29.87  HX  99
LOS MOCHIS       N/A    N/A N/A N/A MISG        N/A
OBREGON          N/A    N/A N/A N/A MISG        N/A

NORTHEASTERN MEXICO

CITY           SKY/WX    TMP DP  RH WIND       PRES   REMARKS
CHIHUAHUA      PTCLDY    79  52  38 SE12      30.13
MONTERREY      PTCLDY    75  63  64 SE9       30.08R
REYNOSA        PTCLDY    77  72  83 SE6       30.09
SALTILLO       PTCLDY    72  59  64 N9        30.24R
TORREON        CLOUDY    72  61  68 SW9       30.13R
CD. VICTORIA   PTCLDY    72  66  83 E3        30.11

WESTERN MEXICO

CITY           SKY/WX    TMP DP  RH WIND       PRES   REMARKS
AGUASCALIENTES MOCLDY    63  57  82 S7        30.32
DEL BAJIO      CLOUDY    63  59  88 CALM      30.32R
GUADALAJARA    CLOUDY    68  57  68 NE7       30.22
MAZATLAN       CLOUDY    81  68  65 NE7       29.86R
P. VALLARTA    MOCLDY    84  75  74 CALM      29.89R HX  92
ZACATECAS      CLOUDY    61  50  67 SE5       30.32R

CENTRAL MEXICO

CITY           SKY/WX    TMP DP  RH WIND       PRES   REMARKS
MEXICO CITY    PTCLDY    63  52  67 NE12      30.36R
MORELIA        CLOUDY    61  59  94 N3        30.29
S. LUIS POTOSI MOCLDY    61  55  82 SE12      30.33R
TAMPICO        CLOUDY    77  73  88 NW3       30.07R
TOLUCA         CLOUDY    57  50  77 CALM      30.43R

SOUTHERN MEXICO

CITY           SKY/WX    TMP DP  RH WIND       PRES   REMARKS
ACAPULCO       MOCLDY    84  79  84 W5        29.85R HX  96
OAXACA         MOCLDY    68  48  49 NW9       30.29R
VERACRUZ       MOCLDY    79  73  83 NW3       30.04R

YUCATAN PENINSULA

CITY           SKY/WX    TMP DP  RH WIND       PRES   REMARKS
CAMPECHE       CLEAR     81  72  74 E9        29.99R
CANCUN         PTCLDY    81  77  89 E6        30.06R
COZUMEL        PTCLDY    75  75 100 E3        30.05R
MERIDA         PTCLDY    81  75  83 NE3       30.04R
TAPACHULA      CLEAR     82  79  89 CALM      29.89R HX  93
TUX. GUTIERREZ PTCLDY    73  70  88 S5        29.98R
VILLAHERMOSA   CLOUDY    75  72  88 NE5       30.00S

CENTRAL AMERICA

CITY           SKY/WX    TMP DP  RH WIND       PRES   REMARKS
MANAGUA        PTCLDY    82  72  69 E9        29.86R

CARIBBEAN

CITY           SKY/WX    TMP DP  RH WIND       PRES   REMARKS
ARUBA          PTCLDY    81  75  83 E17       29.92S
CURACAO        PTCLDY    81  75  83 SE15      29.94F
KINGSTON       PTCLDY    84  73  70 E8        29.97S HX  91
NASSAU         PTCLDY    82  73  74 E7        30.14S
SAN JUAN       PTCLDY    82  73  74 E8        30.10S
SANTO DOMINGO  PTCLDY    75  72  88 N5        30.06S THUNDER
ST. CROIX      CLOUDY    82  73  74 NE8       30.09F
ST. THOMAS     CLOUDY    82  75  78 E8        30.09S

$$



USA.gov is the U.S. government's official web portal to all federal, state and local government web resources and services.